Vorticity
12 12 10 6 2 1 -1 -3 5 15 12 6 9 14 16 17 14 11 15 22 19 8 1 4 5 -1 0 9 13 15 19 17 9 2 2 4 5 10 17 16 12 14 15 13 10 7 5 4 7 12 14 9 6 5 4 3 4 7 10 6 3 6 5 1 1 2 4 3 2 3 2 2 8 9 4 1 4 8 10 10 9 7 9 9 6
42 36 32 26 19 17 16 6 -2 -1 -0 -0 -1 -6 -3 1 1 7 18 23 20 11 1 -3 -0 4 7 5 10 19 18 11 10 11 6 0 -0 7 14 11 7 10 14 17 15 9 4 1 2 7 9 5 3 3 2 3 3 6 9 7 6 6 1 -1 1 2 3 0 1 5 2 3 9 8 4 2 5 9 10 9 7 8 10 7 6
57 56 53 47 38 30 29 25 20 14 7 4 -0 -13 -15 -8 -9 -6 4 7 6 8 8 1 -3 5 10 5 11 24 17 3 3 11 11 8 9 9 6 6 8 7 6 11 15 17 15 8 4 5 6 5 3 2 3 2 -0 3 7 7 6 2 -2 -1 1 4 4 -0 1 6 2 4 11 8 3 3 6 9 9 7 6 8 11 6 6
27 35 38 40 42 41 39 37 36 38 33 26 20 8 -2 -5 -12 -16 -10 -9 -11 -9 -3 0 2 8 10 11 16 15 5 -2 2 10 13 13 18 16 5 6 13 9 3 2 2 7 14 15 13 10 8 8 5 2 3 2 1 2 5 6 4 -1 -3 -1 2 5 4 -0 3 5 2 7 13 8 3 5 7 9 8 6 7 10 10 6 8
22 29 30 28 28 28 31 32 30 34 38 40 46 48 40 29 14 -1 -7 -2 5 5 -0 -3 6 18 20 19 17 6 -1 2 7 15 16 11 15 19 11 7 10 11 10 9 6 7 12 16 17 15 12 12 11 7 3 3 5 7 9 10 6 1 0 -0 1 4 2 1 6 4 2 10 14 7 4 6 7 8 9 7 9 11 8 7 12
19 18 19 20 19 18 19 22 22 23 25 27 32 41 50 55 55 41 19 7 9 16 16 5 1 11 23 29 23 8 2 3 4 10 15 15 14 14 11 7 7 10 12 12 12 12 11 13 17 21 19 13 12 12 8 5 5 6 8 11 8 4 2 -0 1 3 0 4 8 2 3 13 12 5 4 7 8 8 8 8 10 10 7 8 15
14 14 17 21 21 20 17 16 18 21 23 22 20 21 25 34 47 55 49 33 17 14 20 16 4 -2 4 18 23 11 1 0 2 5 13 19 13 5 6 5 2 5 6 2 -2 -8 -9 -6 -1 12 22 18 12 12 12 12 10 6 4 6 7 4 2 2 2 0 0 7 8 1 6 15 9 4 6 8 9 9 7 9 10 9 7 11 17
14 8 10 13 13 17 19 16 15 19 22 23 24 29 32 32 34 37 42 42 36 32 27 17 11 4 -7 -5 7 11 7 5 6 7 14 22 13 2 2 0 0 5 3 -2 -7 -13 -6 -1 -7 -2 14 19 15 11 12 16 16 13 7 4 6 5 4 5 3 2 5 8 5 3 10 13 6 6 10 8 8 7 6 9 10 7 8 12 18
10 2 5 9 9 14 21 21 20 22 24 24 26 31 33 35 36 37 39 37 34 42 43 24 14 13 -1 -13 -12 -5 4 12 14 11 12 16 12 4 2 -1 1 7 4 2 2 -3 3 10 4 -1 5 15 18 13 13 16 15 16 13 8 11 11 9 8 6 6 7 4 3 7 10 9 7 10 11 7 6 7 6 9 9 6 9 13 18
6 4 8 13 12 14 19 22 22 23 25 26 27 26 21 22 27 32 39 41 34 41 46 31 20 20 12 -1 -9 -11 -6 4 13 15 13 12 7 3 5 4 6 10 6 1 1 1 4 10 11 5 4 15 19 12 14 17 14 14 15 13 15 13 10 11 7 4 3 4 7 9 8 8 11 11 8 5 5 6 7 9 7 7 10 13 19
6 5 7 9 11 15 20 21 20 20 23 25 27 27 20 19 23 23 28 35 38 47 49 30 20 22 17 9 6 1 -5 -6 -2 2 8 12 7 -2 -0 5 6 6 0 -7 -5 2 3 3 7 5 5 17 19 10 12 18 15 13 14 14 15 14 12 9 2 1 6 10 9 7 7 9 10 9 6 5 5 6 9 9 6 8 11 12 19
5 7 9 9 10 15 21 24 25 24 22 22 25 26 21 20 22 19 20 24 30 46 51 29 14 20 19 13 15 16 12 10 7 -1 -4 2 4 -2 -5 -2 -1 -3 -7 -9 -4 2 1 1 8 11 10 19 22 12 10 17 16 12 12 13 14 12 7 0 1 8 12 10 6 6 7 8 9 9 6 5 6 7 9 8 6 10 12 12 20
6 8 9 9 11 15 18 23 31 32 28 28 28 23 19 22 23 20 21 24 25 39 48 28 8 17 22 13 15 20 16 15 16 9 -1 -3 -2 -4 -5 -3 0 -0 1 4 5 9 11 10 13 15 14 22 26 17 11 14 12 7 9 12 8 3 -0 1 8 13 8 5 5 6 8 9 11 10 6 5 8 8 8 7 8 12 13 15 21
5 9 10 8 10 15 18 24 32 31 26 27 28 23 19 20 24 26 27 25 23 34 50 39 13 14 22 12 10 18 14 8 9 9 8 8 3 -3 -0 6 4 -1 5 13 11 11 12 9 10 15 17 22 24 17 11 10 5 2 6 7 0 -2 1 7 12 10 5 7 7 6 10 13 11 7 4 6 10 9 8 8 9 12 13 17 22
5 9 10 9 11 16 20 25 29 26 24 24 21 19 19 22 26 26 23 21 18 21 39 47 30 22 28 19 9 15 17 13 13 12 13 17 14 6 7 11 3 -6 -0 7 5 5 10 11 15 18 19 23 24 16 10 7 3 3 4 1 -1 1 3 7 10 9 8 9 7 10 15 13 8 6 5 8 11 8 7 9 11 13 14 18 24
8 8 9 12 15 16 21 27 29 26 26 27 23 17 14 20 28 25 14 10 9 7 19 38 38 32 35 27 13 12 16 18 22 23 18 16 15 11 8 4 -3 -6 1 4 2 7 13 13 14 15 17 24 24 15 8 6 5 5 3 1 3 2 1 6 12 11 10 9 10 14 15 9 6 6 6 9 9 6 7 11 13 14 16 20 26
9 8 9 13 16 17 21 29 31 29 24 24 27 21 8 6 16 24 24 20 14 11 13 19 23 31 36 27 15 16 21 24 28 28 19 11 11 11 5 -2 -5 -2 3 6 6 10 12 10 14 21 24 23 19 13 10 7 5 4 2 3 6 5 7 13 15 11 10 11 14 15 10 6 6 6 8 10 7 5 9 13 14 15 17 20 27
10 8 7 14 19 20 23 28 30 30 25 20 22 21 11 5 3 3 14 23 20 17 18 16 18 29 32 20 13 20 26 27 29 27 18 9 9 11 4 -1 1 1 -1 2 6 9 11 12 16 22 23 19 16 14 13 11 9 9 8 10 11 11 13 16 14 11 13 15 15 11 7 5 6 6 8 8 4 6 12 13 14 16 16 19 27
9 5 7 16 22 20 24 30 29 25 21 16 17 16 14 17 14 -1 0 14 16 17 27 28 22 27 31 24 19 24 26 26 28 27 17 8 5 5 4 5 9 7 2 5 10 13 17 19 16 13 14 18 18 16 15 16 15 14 14 15 14 13 14 13 12 13 16 15 10 6 5 5 7 7 8 6 5 9 13 14 16 16 15 21 27
10 5 7 18 24 23 26 30 25 20 18 15 16 18 14 18 24 15 7 12 12 14 30 31 16 19 33 31 24 22 20 19 24 24 15 5 1 1 6 11 15 15 16 20 22 21 21 22 20 16 15 19 20 17 15 16 15 13 13 13 13 13 12 12 13 15 14 10 5 5 6 6 7 8 7 5 7 11 14 14 15 13 15 23 26
11 5 10 18 23 27 28 28 23 17 13 11 13 20 20 19 25 25 22 17 5 7 27 31 16 19 29 23 17 19 16 15 21 22 12 6 4 5 10 16 18 20 24 27 25 21 19 20 20 18 17 18 18 15 13 12 11 11 12 12 12 11 9 10 14 15 10 5 5 6 6 6 7 8 5 5 9 13 14 14 13 12 16 23 24
10 5 11 16 22 31 33 28 21 13 12 14 15 18 21 22 28 37 36 17 -5 1 25 28 17 20 22 13 12 19 20 22 27 23 13 10 10 11 14 20 24 24 23 22 21 18 16 16 17 15 14 16 15 13 11 11 12 11 11 10 8 8 9 12 14 11 5 4 6 6 5 7 7 6 5 7 12 15 14 14 11 11 18 23 20
7 4 10 13 24 40 39 24 14 15 18 18 14 16 23 28 37 48 40 11 -11 1 24 24 17 18 13 7 12 18 20 26 30 24 17 16 15 15 17 21 22 20 16 15 17 17 16 16 14 12 12 13 12 11 11 12 13 11 8 6 5 7 11 13 12 7 3 4 6 5 6 8 7 6 6 9 14 16 14 12 9 11 21 24 16
5 5 9 15 30 44 37 21 19 24 19 10 12 25 32 34 41 48 35 4 -12 2 21 23 20 19 11 7 15 16 11 16 23 22 19 17 14 13 14 15 14 13 11 12 14 13 12 14 13 11 12 12 10 11 12 11 9 6 3 5 7 10 13 12 8 4 3 5 6 6 7 9 7 6 7 10 16 17 13 9 8 13 23 23 14
5 6 9 18 37 46 35 22 19 14 6 9 22 29 23 23 37 46 31 3 -9 5 24 26 21 20 15 13 18 19 13 12 16 18 16 12 9 11 13 12 9 7 8 11 12 11 12 15 15 13 12 11 10 10 9 6 3 3 5 8 9 11 12 10 5 2 4 6 6 7 8 8 7 6 7 13 18 16 12 9 8 16 25 21 11
7 9 10 22 43 47 30 14 6 2 10 25 29 17 8 17 36 41 26 7 3 13 24 22 16 14 13 13 17 20 17 11 8 9 9 6 5 8 12 14 11 6 6 10 12 13 16 18 16 14 11 9 8 7 5 3 3 6 9 9 10 12 11 7 3 2 5 6 6 8 9 8 7 6 9 17 19 14 12 10 9 19 28 19 7
9 10 12 30 48 41 17 3 4 14 30 33 17 3 5 21 36 36 23 14 15 18 18 17 14 11 8 10 15 18 18 14 7 3 4 3 3 6 11 16 15 9 6 9 10 13 16 16 16 14 10 8 8 6 5 5 7 9 10 9 12 13 9 4 2 3 5 6 7 8 9 7 6 6 12 21 19 13 12 10 10 23 30 18 6
12 10 17 37 46 29 7 2 12 26 34 27 12 4 5 10 21 30 27 21 19 16 14 14 14 11 8 8 11 14 17 18 13 9 8 5 5 9 12 14 14 9 6 9 9 10 12 14 15 15 12 10 11 9 8 8 8 9 10 11 13 11 5 2 3 4 6 7 6 8 9 6 5 8 16 23 17 11 12 10 11 26 32 18 6
12 11 23 42 40 20 4 4 13 21 21 15 9 6 4 4 11 18 22 24 22 18 17 14 9 7 9 10 12 14 16 17 15 14 13 10 8 11 12 12 12 9 6 6 6 7 11 13 14 14 12 11 11 9 8 9 9 11 13 13 12 8 2 1 4 5 7 7 7 8 8 5 5 10 19 23 16 11 12 9 10 27 34 18 5
11 12 28 43 33 12 3 7 15 22 20 14 9 5 4 9 12 12 15 20 16 13 18 18 9 5 8 9 9 8 10 14 16 15 13 12 11 12 11 12 13 10 6 4 3 5 9 13 14 13 12 10 9 8 8 10 12 14 16 14 10 5 1 2 6 7 7 6 7 8 6 4 7 13 20 21 15 11 12 8 10 28 36 20 4
11 14 31 41 26 7 4 9 14 16 15 12 13 12 9 9 12 15 19 20 13 9 16 18 12 8 8 4 2 3 6 10 14 14 13 14 14 13 10 10 11 10 8 6 4 3 7 12 13 13 11 9 9 9 11 13 15 16 15 12 7 2 1 5 8 7 7 7 7 8 5 3 9 16 20 19 14 11 12 9 9 25 37 24 6
12 15 31 39 23 5 5 10 14 16 12 6 8 12 10 7 11 16 16 14 12 15 20 18 12 9 8 6 4 5 8 9 10 12 10 7 7 10 10 9 10 9 8 8 7 5 7 10 10 9 9 10 10 12 14 16 17 16 13 8 4 2 3 7 8 7 7 8 7 6 5 5 11 18 19 17 13 11 11 9 8 20 36 30 9
12 16 32 40 23 6 7 11 14 18 16 11 12 14 12 11 14 17 15 11 8 12 18 22 18 12 10 11 11 9 8 9 10 12 12 6 3 5 6 8 10 7 5 6 8 6 7 8 8 8 9 10 11 13 16 18 18 15 10 4 2 3 5 7 8 8 8 8 7 6 5 7 13 18 17 15 14 10 10 10 7 14 32 36 16
10 14 31 41 26 10 9 8 6 11 16 18 21 22 19 14 9 7 9 10 7 3 4 12 19 15 8 8 11 12 11 10 7 6 7 7 5 2 1 4 8 7 4 5 7 6 7 8 7 7 8 10 11 14 18 20 17 11 6 2 3 5 7 8 10 10 8 7 7 6 6 9 15 18 15 14 14 10 8 11 9 9 24 37 25
9 12 29 43 31 12 6 3 2 10 18 19 18 19 18 15 8 4 8 15 19 17 14 15 23 26 21 17 17 16 13 11 9 8 7 6 5 2 -1 1 8 10 7 7 8 8 8 7 6 7 9 11 15 18 21 19 12 5 3 3 4 6 8 10 11 10 8 7 7 6 8 12 16 16 15 14 14 11 8 9 9 7 14 31 33
8 10 24 43 37 16 6 3 0 6 14 13 9 10 11 8 6 9 12 13 15 21 27 29 28 25 23 24 27 29 25 18 12 9 7 4 2 -0 -0 5 11 11 8 9 11 9 7 6 8 11 13 16 20 23 21 14 6 3 3 4 5 7 10 12 11 8 7 7 7 6 10 14 16 15 14 14 14 12 9 7 9 8 8 20 34
6 6 16 40 45 25 9 4 0 2 11 12 7 8 7 2 2 7 9 6 8 15 22 28 29 26 20 17 20 28 36 35 27 19 15 14 14 14 16 18 16 9 7 11 11 8 6 8 11 13 17 21 23 21 14 6 3 4 4 4 6 10 12 12 10 8 7 7 7 8 12 15 15 14 14 14 13 12 10 7 7 9 8 9 24
7 4 4 27 48 38 16 7 3 2 7 9 6 6 6 2 4 8 2 -2 6 14 13 14 21 27 26 19 12 15 26 37 42 38 30 23 23 23 22 19 13 9 10 12 10 8 9 11 13 17 22 24 21 13 6 3 3 4 4 6 9 12 13 10 8 8 8 8 8 10 13 15 15 14 14 15 14 12 10 8 6 8 10 7 9
9 11 1 11 39 47 30 14 7 4 4 5 5 7 7 2 5 9 2 -6 -2 6 7 8 12 18 22 22 18 16 17 21 30 37 35 27 20 16 14 13 13 14 14 12 11 11 12 14 18 24 24 19 12 5 3 4 4 4 5 9 12 12 11 9 8 8 9 9 9 12 14 14 14 14 14 14 15 13 10 10 8 6 8 9 6
5 14 8 5 25 44 40 25 15 10 7 5 4 7 8 4 4 9 8 1 -3 -1 3 9 11 10 13 18 19 19 19 14 11 17 25 26 23 19 18 16 15 14 13 12 11 11 15 20 25 25 18 10 4 2 3 4 4 5 8 11 12 10 8 8 8 9 9 10 11 12 13 13 13 14 14 14 14 14 11 9 10 8 5 7 9
3 11 12 5 14 34 41 33 24 19 14 11 9 7 7 7 9 11 8 2 -1 0 4 9 12 10 9 11 11 12 18 18 12 9 11 13 15 17 16 15 14 13 11 10 11 15 22 25 22 16 9 4 2 3 4 4 5 8 11 11 10 8 8 8 9 10 10 10 11 11 12 13 13 13 14 14 13 13 13 9 8 11 9 6 8
3 9 13 9 10 24 36 37 33 23 13 11 10 7 7 10 11 10 5 -0 1 5 5 6 10 12 10 9 8 6 9 15 17 16 14 13 13 14 13 13 15 13 10 11 17 22 23 19 13 7 4 2 2 3 4 6 9 11 11 9 8 8 9 9 10 10 10 10 11 11 11 12 13 12 13 15 13 11 12 10 7 8 11 9 8
4 10 14 10 10 17 28 38 38 23 6 4 7 6 7 11 7 3 2 0 1 4 2 -2 3 8 8 7 9 7 7 10 15 18 19 17 14 14 15 14 12 9 10 16 22 21 15 10 7 5 3 2 3 5 7 9 11 11 9 9 9 9 10 10 9 10 10 9 10 12 10 10 13 12 11 13 14 11 10 10 8 6 7 9 10
4 12 16 12 9 13 22 34 39 23 1 -2 5 6 7 8 4 1 3 2 -1 1 2 -0 2 7 9 9 10 9 9 11 15 20 23 21 15 13 13 11 10 12 17 21 18 12 8 7 6 3 2 3 6 9 10 11 11 10 8 10 10 9 9 10 9 9 11 9 9 11 11 10 11 13 12 11 13 12 9 8 8 7 6 8 10
1 11 18 15 9 10 15 27 37 29 6 -3 3 7 5 5 3 4 5 2 -2 2 5 4 5 9 10 10 11 11 12 15 17 21 25 24 17 12 11 12 15 19 19 16 10 7 7 7 4 2 5 8 9 12 12 11 10 10 10 10 10 8 8 10 10 9 9 10 9 9 11 11 11 12 13 12 11 11 10 8 7 8 8 9 10
-0 7 18 18 12 9 11 18 28 31 19 7 5 6 5 4 5 5 5 3 1 4 7 6 5 8 10 10 11 13 16 20 22 24 25 22 17 13 15 18 21 18 12 8 8 8 7 5 4 6 10 12 12 12 12 10 10 12 11 9 9 10 9 9 9 8 8 9 10 9 10 12 12 11 12 13 11 10 10 9 8 9 10 10 11
2 4 14 19 13 8 10 13 17 23 25 20 15 13 11 10 8 7 6 5 3 2 5 5 5 8 10 10 11 16 20 21 22 22 22 19 17 19 21 20 15 10 7 8 9 7 5 6 9 12 13 13 12 11 12 12 11 11 10 8 8 9 8 7 7 8 7 7 9 9 9 10 12 12 12 12 13 12 11 11 11 11 11 11 12
6 6 13 18 13 7 10 13 13 14 18 21 21 19 16 14 13 11 8 2 -3 -2 3 6 6 9 10 9 13 22 26 23 21 21 21 19 20 20 18 13 9 8 9 9 8 8 9 12 14 14 13 13 13 12 12 11 9 7 8 8 7 6 7 7 6 7 8 7 7 8 9 8 9 10 11 11 13 13 13 13 13 12 13 12 11
11 11 16 18 13 7 9 12 11 10 11 15 20 23 20 16 13 12 8 3 0 2 6 6 6 9 9 9 17 27 28 22 19 17 14 13 13 12 10 9 9 10 11 10 11 13 14 14 14 14 14 13 13 11 8 8 7 6 6 7 7 6 8 8 7 7 9 9 7 8 9 9 9 9 9 10 11 11 11 13 13 12 12 13 12
16 18 19 16 11 8 10 12 13 12 11 10 16 24 28 24 17 12 11 12 10 9 8 7 7 10 10 12 20 27 25 19 17 15 12 11 12 11 9 10 10 10 11 13 13 14 15 15 14 15 13 9 8 7 6 6 7 7 6 7 8 8 7 8 9 8 8 9 9 9 9 9 10 10 10 10 10 10 9 9 9 9 9 8 9
19 20 18 15 12 11 12 13 14 15 15 13 13 18 25 29 25 16 12 12 11 9 8 7 8 9 10 13 17 18 15 12 12 11 10 10 11 10 10 11 11 11 13 14 14 15 16 15 12 9 8 6 5 7 8 7 7 8 7 7 7 8 8 7 8 9 8 8 9 10 10 10 10 10 9 9 8 8 8 8 7 8 9 8 8
Height
5368 5368 5370 5370 5371 5372 5372 5371 5370 5368 5367 5367 5367 5368 5369 5369 5370 5371 5372 5372 5372 5374 5376 5377 5379 5379 5379 5380 5381 5382 5384 5385 5386 5386 5387 5388 5388 5389 5389 5390 5391 5391 5391 5391 5392 5392 5392 5392 5392 5392 5392 5394 5394 5395 5395 5396 5396 5396 5396 5396 5396 5395 5394 5394 5394 5394 5392 5388 5387 5385 5379 5375 5371 5363 5359 5357 5352 5347 5343 5338 5332 5327 5321 5315 5309
5355 5355 5356 5357 5357 5357 5358 5357 5356 5355 5355 5354 5355 5356 5357 5357 5358 5360 5362 5362 5362 5363 5365 5366 5368 5369 5370 5371 5371 5372 5374 5376 5377 5378 5379 5380 5381 5382 5382 5383 5384 5384 5384 5385 5385 5385 5385 5386 5385 5385 5385 5386 5387 5387 5388 5388 5389 5389 5389 5389 5389 5388 5387 5386 5385 5385 5384 5381 5378 5376 5372 5368 5364 5357 5351 5349 5345 5341 5337 5331 5324 5319 5313 5307 5301
5346 5344 5343 5344 5343 5343 5343 5342 5341 5340 5340 5341 5342 5342 5343 5345 5346 5348 5351 5352 5352 5352 5354 5355 5357 5359 5360 5361 5362 5363 5364 5366 5368 5370 5371 5372 5373 5374 5374 5375 5377 5377 5378 5378 5378 5378 5379 5379 5379 5378 5379 5379 5379 5380 5380 5381 5381 5382 5382 5382 5382 5381 5379 5378 5377 5376 5376 5374 5370 5367 5364 5360 5356 5350 5344 5341 5338 5334 5330 5324 5318 5312 5305 5298 5293
5337 5335 5333 5332 5331 5330 5329 5327 5326 5325 5324 5325 5326 5327 5328 5330 5331 5333 5336 5340 5341 5342 5344 5345 5347 5348 5350 5351 5353 5354 5355 5357 5359 5361 5363 5364 5365 5366 5367 5368 5369 5370 5371 5371 5371 5372 5373 5373 5372 5372 5372 5373 5373 5373 5373 5374 5374 5374 5375 5375 5374 5374 5372 5370 5369 5367 5367 5366 5363 5359 5355 5352 5349 5343 5337 5334 5331 5326 5322 5317 5311 5305 5298 5290 5284
5327 5326 5323 5322 5320 5318 5316 5314 5313 5311 5310 5310 5310 5310 5311 5313 5314 5317 5320 5324 5328 5330 5333 5335 5336 5337 5339 5340 5342 5344 5346 5348 5350 5352 5354 5355 5357 5358 5359 5361 5362 5363 5364 5364 5365 5366 5367 5367 5366 5366 5366 5366 5366 5366 5366 5366 5367 5367 5368 5368 5367 5366 5364 5363 5360 5359 5358 5358 5356 5351 5347 5343 5340 5335 5329 5326 5324 5319 5314 5309 5303 5297 5291 5284 5277
5319 5317 5315 5313 5311 5309 5307 5304 5302 5300 5299 5298 5297 5296 5295 5295 5296 5298 5302 5306 5312 5316 5320 5324 5326 5327 5328 5330 5332 5335 5336 5338 5341 5344 5346 5347 5349 5350 5352 5353 5354 5356 5357 5358 5358 5359 5360 5360 5360 5360 5360 5359 5358 5358 5359 5359 5360 5360 5360 5360 5359 5357 5357 5355 5352 5351 5351 5350 5348 5344 5340 5335 5332 5327 5321 5317 5315 5311 5307 5302 5296 5289 5283 5277 5271
5313 5311 5308 5305 5303 5300 5297 5294 5292 5289 5287 5285 5283 5282 5280 5280 5280 5281 5284 5288 5294 5300 5304 5310 5314 5317 5319 5321 5323 5325 5326 5329 5332 5335 5337 5339 5340 5342 5343 5344 5346 5348 5349 5351 5351 5352 5352 5352 5352 5352 5352 5351 5351 5351 5352 5353 5353 5353 5353 5352 5351 5350 5349 5347 5345 5344 5344 5343 5340 5337 5333 5328 5323 5319 5315 5310 5305 5301 5297 5294 5289 5282 5274 5269 5264
5308 5305 5301 5298 5294 5291 5287 5283 5279 5276 5273 5271 5268 5267 5266 5265 5266 5266 5268 5271 5276 5282 5288 5294 5300 5305 5308 5311 5314 5315 5318 5321 5324 5326 5328 5330 5332 5333 5335 5337 5338 5340 5342 5343 5344 5345 5345 5345 5345 5345 5344 5344 5344 5345 5345 5346 5346 5346 5345 5344 5343 5342 5341 5339 5338 5338 5337 5335 5333 5329 5326 5321 5315 5310 5307 5303 5298 5293 5288 5284 5281 5274 5267 5262 5256
5302 5298 5294 5291 5287 5282 5278 5274 5269 5265 5261 5259 5256 5254 5254 5253 5253 5254 5255 5257 5261 5266 5272 5278 5284 5290 5296 5300 5303 5306 5309 5313 5315 5317 5319 5321 5324 5325 5327 5329 5331 5333 5334 5336 5337 5338 5339 5338 5338 5337 5337 5337 5337 5338 5339 5339 5339 5338 5337 5336 5336 5334 5333 5332 5332 5331 5330 5328 5325 5322 5318 5314 5308 5303 5300 5295 5290 5286 5281 5276 5271 5265 5259 5255 5249
5296 5293 5289 5285 5281 5276 5271 5265 5261 5257 5253 5250 5247 5245 5244 5243 5243 5243 5244 5246 5249 5253 5258 5264 5270 5276 5282 5288 5292 5296 5300 5304 5306 5308 5309 5313 5316 5317 5319 5321 5323 5325 5327 5329 5330 5331 5332 5331 5331 5331 5330 5330 5331 5332 5332 5332 5332 5331 5330 5330 5328 5327 5326 5327 5326 5325 5323 5321 5318 5314 5311 5307 5301 5296 5293 5289 5284 5279 5274 5268 5263 5257 5251 5248 5243
5292 5288 5284 5280 5274 5269 5264 5258 5254 5249 5245 5242 5239 5237 5236 5234 5235 5236 5236 5237 5239 5242 5248 5253 5259 5264 5270 5275 5280 5285 5290 5295 5297 5299 5301 5305 5308 5310 5312 5315 5316 5319 5320 5321 5323 5324 5325 5325 5325 5324 5324 5324 5325 5326 5326 5326 5325 5325 5324 5323 5321 5320 5320 5321 5320 5318 5315 5313 5310 5306 5303 5300 5295 5290 5286 5282 5277 5272 5266 5260 5255 5249 5243 5239 5236
5285 5282 5277 5273 5267 5261 5256 5250 5246 5242 5238 5235 5232 5231 5229 5228 5228 5229 5229 5230 5232 5235 5239 5244 5249 5254 5259 5265 5270 5274 5279 5283 5286 5290 5293 5297 5300 5303 5305 5307 5310 5312 5313 5314 5315 5316 5317 5318 5318 5318 5318 5318 5319 5320 5320 5319 5319 5318 5318 5316 5315 5315 5314 5314 5312 5310 5308 5306 5303 5299 5295 5293 5289 5284 5279 5275 5271 5265 5260 5253 5246 5241 5235 5230 5226
5280 5275 5270 5265 5259 5253 5248 5243 5239 5235 5231 5228 5226 5224 5223 5222 5222 5223 5224 5225 5227 5228 5232 5236 5240 5244 5250 5255 5260 5265 5269 5272 5275 5279 5284 5288 5292 5296 5298 5300 5303 5304 5305 5307 5308 5309 5310 5310 5311 5311 5311 5312 5313 5313 5313 5313 5313 5312 5312 5311 5310 5309 5308 5307 5305 5304 5302 5299 5297 5293 5289 5285 5282 5278 5272 5267 5263 5258 5252 5246 5239 5232 5228 5222 5218
5275 5269 5264 5258 5253 5247 5241 5237 5233 5229 5225 5222 5220 5218 5217 5217 5218 5218 5219 5221 5222 5224 5226 5228 5232 5237 5241 5246 5251 5255 5259 5263 5266 5270 5275 5280 5285 5289 5291 5293 5296 5298 5299 5300 5302 5302 5303 5303 5304 5304 5305 5306 5307 5307 5307 5307 5306 5306 5305 5305 5304 5303 5302 5300 5298 5297 5294 5292 5290 5286 5282 5278 5275 5271 5265 5259 5254 5250 5244 5239 5232 5226 5221 5216 5210
5269 5263 5257 5252 5246 5241 5236 5231 5227 5224 5220 5218 5216 5214 5214 5214 5214 5214 5216 5218 5219 5220 5221 5223 5226 5230 5234 5238 5243 5247 5251 5254 5258 5263 5268 5273 5277 5281 5285 5287 5289 5291 5293 5294 5295 5296 5296 5296 5297 5298 5298 5299 5300 5300 5300 5300 5300 5300 5299 5298 5298 5296 5295 5294 5292 5290 5287 5284 5282 5279 5276 5272 5268 5263 5258 5252 5247 5242 5237 5231 5224 5219 5215 5211 5204
5263 5257 5251 5246 5240 5235 5230 5225 5222 5219 5217 5214 5213 5212 5211 5210 5211 5211 5212 5213 5214 5216 5217 5218 5221 5224 5228 5232 5236 5240 5244 5247 5252 5257 5262 5267 5270 5274 5279 5281 5282 5284 5287 5288 5289 5289 5289 5290 5291 5292 5292 5293 5294 5294 5294 5294 5294 5294 5293 5292 5292 5291 5289 5287 5286 5283 5281 5278 5275 5272 5269 5265 5261 5256 5251 5245 5240 5235 5230 5224 5217 5211 5208 5204 5199
5257 5251 5245 5240 5234 5229 5224 5220 5217 5215 5213 5211 5210 5209 5208 5207 5207 5208 5208 5209 5210 5211 5213 5214 5217 5219 5223 5226 5230 5235 5238 5241 5246 5251 5257 5262 5265 5268 5273 5276 5276 5278 5281 5282 5283 5283 5283 5284 5286 5286 5286 5287 5287 5288 5289 5289 5288 5288 5287 5287 5286 5285 5283 5281 5279 5277 5274 5271 5268 5265 5262 5258 5254 5249 5244 5238 5233 5228 5224 5218 5211 5205 5201 5197 5193
5252 5246 5240 5235 5229 5224 5219 5215 5212 5210 5209 5207 5206 5206 5205 5205 5204 5204 5205 5206 5207 5207 5208 5210 5213 5215 5218 5222 5226 5230 5233 5236 5241 5246 5252 5256 5260 5262 5266 5270 5271 5272 5275 5276 5276 5276 5277 5279 5281 5281 5281 5280 5281 5282 5283 5283 5283 5283 5282 5281 5280 5279 5277 5275 5273 5270 5268 5265 5262 5258 5255 5251 5247 5243 5238 5233 5227 5222 5217 5212 5206 5200 5196 5191 5186
5247 5242 5236 5230 5225 5220 5215 5211 5208 5206 5204 5203 5202 5202 5201 5201 5200 5200 5201 5202 5203 5204 5205 5207 5209 5211 5214 5218 5222 5225 5228 5231 5236 5241 5246 5251 5254 5257 5261 5265 5266 5267 5268 5270 5270 5271 5272 5274 5275 5275 5275 5275 5275 5276 5277 5278 5278 5277 5277 5276 5275 5273 5271 5269 5267 5264 5262 5259 5256 5252 5249 5245 5241 5237 5232 5227 5222 5216 5211 5205 5200 5195 5190 5185 5179
5242 5237 5231 5226 5220 5215 5211 5207 5204 5202 5201 5200 5199 5198 5197 5196 5196 5196 5197 5198 5199 5200 5202 5203 5206 5208 5211 5215 5218 5221 5224 5227 5232 5237 5242 5246 5250 5252 5256 5260 5261 5261 5262 5263 5264 5265 5266 5268 5269 5269 5269 5269 5269 5270 5271 5272 5272 5272 5272 5271 5270 5267 5266 5264 5262 5259 5256 5253 5250 5247 5243 5239 5235 5231 5227 5222 5217 5211 5206 5200 5194 5189 5184 5180 5174
5237 5232 5226 5221 5215 5211 5207 5203 5201 5199 5197 5196 5195 5194 5192 5192 5191 5191 5192 5194 5196 5198 5199 5201 5203 5206 5208 5212 5215 5218 5221 5224 5229 5234 5238 5242 5245 5249 5252 5255 5256 5256 5256 5257 5259 5260 5260 5261 5262 5262 5263 5263 5264 5265 5266 5267 5267 5267 5267 5266 5265 5263 5261 5259 5257 5254 5252 5249 5246 5242 5239 5235 5231 5227 5222 5217 5212 5206 5200 5194 5189 5184 5179 5174 5170
5231 5226 5221 5216 5211 5207 5203 5200 5198 5196 5195 5193 5192 5191 5189 5188 5187 5186 5188 5191 5193 5195 5196 5198 5201 5204 5206 5209 5212 5215 5218 5222 5226 5231 5234 5238 5242 5245 5248 5250 5251 5251 5251 5252 5253 5254 5255 5255 5256 5257 5257 5258 5259 5260 5261 5262 5262 5262 5262 5261 5260 5258 5256 5254 5252 5250 5247 5245 5241 5238 5235 5230 5226 5222 5217 5212 5206 5200 5195 5190 5185 5180 5175 5170 5166
5226 5222 5217 5212 5207 5202 5198 5196 5194 5193 5192 5190 5189 5187 5186 5184 5183 5183 5185 5188 5191 5192 5194 5196 5199 5202 5204 5207 5210 5213 5216 5220 5224 5228 5231 5235 5238 5242 5244 5245 5246 5246 5246 5247 5248 5248 5249 5250 5251 5252 5252 5253 5254 5255 5256 5257 5257 5257 5257 5257 5255 5254 5252 5249 5247 5245 5243 5240 5237 5234 5231 5226 5222 5217 5212 5207 5201 5195 5190 5186 5181 5176 5171 5166 5161
5221 5217 5212 5207 5203 5198 5194 5193 5191 5190 5189 5188 5186 5184 5183 5181 5180 5181 5183 5187 5189 5191 5193 5195 5198 5200 5203 5206 5209 5211 5215 5218 5222 5225 5228 5232 5235 5238 5240 5241 5241 5242 5242 5243 5243 5244 5245 5246 5246 5247 5248 5248 5249 5251 5252 5253 5253 5253 5252 5252 5250 5249 5247 5245 5243 5241 5238 5236 5233 5229 5226 5222 5217 5213 5208 5202 5197 5191 5186 5182 5178 5173 5168 5163 5159
5217 5213 5208 5203 5199 5195 5192 5190 5189 5188 5187 5185 5183 5182 5181 5180 5179 5180 5183 5186 5189 5190 5192 5195 5197 5199 5202 5204 5207 5210 5213 5216 5220 5223 5226 5229 5232 5234 5236 5237 5237 5238 5238 5239 5240 5240 5241 5242 5242 5243 5244 5244 5245 5247 5248 5248 5249 5248 5248 5247 5245 5244 5242 5241 5239 5237 5234 5231 5228 5225 5222 5218 5213 5208 5204 5199 5194 5189 5184 5179 5174 5170 5165 5160 5156
5214 5210 5205 5200 5196 5193 5190 5189 5187 5186 5185 5183 5182 5181 5180 5179 5179 5181 5183 5186 5188 5190 5192 5194 5196 5198 5201 5203 5206 5209 5212 5215 5218 5221 5223 5226 5229 5231 5232 5233 5234 5235 5235 5236 5237 5237 5238 5238 5238 5239 5240 5241 5242 5243 5244 5244 5244 5244 5243 5242 5241 5239 5238 5237 5235 5233 5230 5227 5224 5221 5217 5213 5209 5204 5200 5195 5191 5186 5182 5177 5172 5166 5161 5158 5154
5211 5207 5202 5198 5194 5191 5190 5188 5187 5185 5183 5182 5182 5181 5180 5180 5180 5181 5183 5186 5188 5190 5192 5194 5196 5198 5201 5203 5206 5208 5211 5214 5216 5219 5221 5223 5225 5227 5229 5230 5231 5232 5232 5233 5234 5234 5234 5234 5234 5235 5236 5238 5239 5239 5240 5240 5240 5239 5238 5237 5236 5235 5234 5233 5231 5228 5226 5223 5220 5217 5213 5209 5205 5201 5197 5192 5188 5183 5179 5175 5170 5164 5159 5156 5153
5208 5204 5199 5195 5192 5190 5189 5188 5186 5184 5183 5182 5182 5181 5180 5180 5181 5182 5184 5186 5188 5189 5191 5193 5196 5198 5200 5203 5205 5207 5210 5212 5214 5216 5218 5220 5222 5224 5225 5227 5228 5229 5229 5230 5230 5230 5230 5231 5231 5232 5233 5234 5235 5236 5236 5236 5235 5235 5234 5233 5232 5231 5230 5229 5227 5224 5222 5219 5216 5213 5209 5206 5202 5198 5194 5189 5185 5181 5176 5172 5168 5162 5158 5154 5151
5205 5201 5196 5192 5191 5190 5189 5187 5186 5185 5183 5182 5182 5181 5181 5181 5182 5183 5184 5186 5188 5189 5191 5193 5195 5197 5200 5202 5204 5206 5207 5210 5212 5214 5216 5217 5219 5220 5222 5223 5224 5225 5226 5227 5227 5227 5228 5228 5229 5230 5230 5231 5232 5232 5232 5232 5232 5231 5230 5230 5229 5228 5227 5225 5223 5220 5218 5215 5212 5209 5205 5202 5198 5194 5190 5187 5183 5179 5174 5170 5165 5160 5156 5153 5150
5203 5198 5194 5191 5190 5190 5189 5187 5186 5185 5185 5183 5182 5182 5181 5182 5183 5184 5185 5186 5187 5189 5191 5192 5194 5197 5198 5200 5202 5204 5206 5207 5209 5211 5213 5215 5216 5217 5219 5220 5221 5222 5223 5224 5224 5225 5225 5226 5226 5227 5227 5228 5228 5228 5228 5228 5228 5227 5227 5226 5225 5224 5223 5221 5219 5216 5214 5211 5208 5205 5202 5198 5195 5191 5187 5184 5180 5177 5173 5168 5164 5159 5154 5151 5148
5201 5197 5192 5190 5189 5190 5189 5188 5187 5186 5186 5184 5183 5183 5183 5183 5183 5184 5185 5186 5188 5189 5191 5193 5194 5196 5197 5199 5200 5202 5203 5205 5207 5208 5210 5212 5214 5215 5216 5217 5219 5219 5220 5221 5222 5223 5223 5224 5224 5224 5225 5225 5225 5225 5225 5225 5225 5224 5224 5223 5222 5221 5219 5217 5215 5213 5210 5208 5205 5202 5198 5195 5192 5188 5184 5181 5177 5174 5170 5166 5162 5157 5153 5150 5147
5199 5195 5191 5189 5189 5189 5189 5189 5188 5187 5187 5185 5184 5184 5184 5184 5184 5185 5186 5187 5189 5190 5191 5193 5194 5195 5196 5197 5199 5200 5201 5203 5205 5206 5208 5210 5211 5213 5214 5215 5216 5217 5218 5219 5220 5220 5221 5221 5221 5222 5222 5222 5222 5222 5222 5222 5221 5221 5220 5220 5219 5217 5216 5214 5212 5209 5207 5204 5201 5198 5195 5192 5189 5185 5181 5178 5175 5171 5168 5164 5161 5156 5152 5149 5146
5198 5194 5190 5188 5188 5189 5189 5189 5188 5188 5187 5186 5185 5185 5185 5185 5185 5185 5186 5187 5189 5189 5190 5192 5192 5193 5195 5196 5197 5198 5199 5201 5202 5204 5206 5208 5210 5211 5213 5214 5215 5215 5216 5217 5217 5218 5218 5218 5219 5219 5219 5219 5219 5219 5219 5218 5218 5218 5217 5217 5216 5214 5212 5210 5208 5206 5203 5201 5198 5195 5192 5189 5186 5182 5179 5176 5172 5169 5166 5162 5159 5155 5151 5148 5145
5197 5194 5190 5188 5188 5188 5188 5188 5188 5188 5187 5186 5186 5186 5186 5186 5186 5187 5187 5188 5189 5189 5190 5190 5190 5191 5193 5194 5195 5196 5197 5198 5200 5202 5204 5206 5208 5209 5210 5212 5212 5213 5214 5214 5215 5215 5215 5216 5216 5216 5216 5216 5216 5216 5216 5215 5215 5215 5214 5213 5212 5211 5209 5207 5205 5202 5200 5197 5195 5192 5189 5185 5182 5179 5176 5173 5170 5167 5164 5161 5157 5154 5150 5147 5144
5196 5193 5190 5188 5187 5188 5188 5188 5188 5188 5187 5187 5187 5187 5187 5187 5187 5188 5189 5189 5189 5189 5189 5189 5189 5189 5190 5191 5192 5194 5195 5196 5198 5200 5202 5203 5205 5207 5208 5209 5210 5211 5211 5211 5212 5212 5213 5213 5213 5213 5213 5213 5213 5213 5213 5213 5213 5212 5212 5211 5209 5208 5206 5203 5201 5199 5197 5194 5192 5189 5186 5182 5179 5176 5173 5171 5168 5165 5162 5159 5156 5153 5150 5146 5144
5196 5193 5190 5188 5187 5187 5187 5188 5188 5188 5187 5187 5187 5187 5187 5188 5188 5189 5189 5189 5189 5189 5189 5188 5188 5188 5188 5189 5190 5191 5192 5193 5195 5197 5199 5200 5202 5204 5205 5206 5207 5208 5208 5209 5209 5210 5210 5210 5210 5210 5210 5210 5210 5210 5210 5210 5210 5210 5209 5208 5206 5205 5202 5200 5198 5196 5194 5192 5189 5186 5183 5180 5177 5174 5171 5169 5166 5163 5161 5158 5155 5152 5149 5146 5143
5195 5193 5190 5188 5186 5186 5187 5187 5187 5187 5187 5187 5188 5188 5188 5188 5189 5189 5189 5190 5190 5190 5189 5188 5187 5187 5187 5187 5188 5188 5189 5190 5191 5193 5195 5197 5199 5201 5202 5203 5204 5205 5206 5206 5207 5207 5207 5208 5208 5208 5208 5208 5208 5208 5208 5208 5208 5207 5206 5205 5203 5201 5199 5197 5195 5193 5191 5189 5186 5183 5180 5177 5174 5171 5169 5166 5164 5162 5159 5156 5154 5151 5149 5146 5143
5195 5193 5190 5188 5186 5185 5186 5186 5187 5187 5187 5188 5188 5189 5189 5189 5189 5189 5189 5189 5190 5190 5189 5189 5188 5187 5186 5186 5187 5187 5187 5188 5189 5190 5192 5194 5196 5197 5199 5200 5201 5202 5203 5204 5204 5205 5205 5205 5205 5205 5205 5205 5206 5206 5206 5206 5205 5205 5204 5202 5200 5199 5197 5195 5193 5191 5188 5186 5183 5180 5177 5174 5172 5169 5167 5164 5162 5160 5157 5155 5152 5150 5148 5145 5143
5194 5192 5190 5188 5186 5184 5185 5185 5186 5187 5187 5188 5188 5189 5189 5189 5189 5189 5189 5189 5190 5190 5190 5190 5189 5188 5187 5187 5187 5187 5187 5187 5188 5189 5190 5191 5193 5195 5196 5198 5199 5200 5201 5202 5202 5203 5203 5203 5203 5203 5203 5204 5204 5204 5204 5204 5203 5202 5201 5199 5198 5196 5194 5192 5190 5188 5186 5183 5180 5177 5175 5172 5169 5167 5164 5162 5160 5158 5156 5153 5151 5148 5146 5144 5142
5193 5191 5190 5188 5186 5184 5184 5185 5185 5186 5187 5188 5189 5189 5189 5189 5190 5190 5190 5190 5190 5190 5190 5190 5190 5189 5189 5188 5188 5188 5188 5188 5188 5188 5189 5190 5192 5193 5195 5196 5197 5198 5199 5200 5200 5200 5201 5201 5201 5201 5202 5202 5202 5202 5202 5202 5201 5200 5198 5197 5195 5193 5192 5190 5188 5185 5183 5180 5178 5175 5172 5170 5167 5165 5162 5160 5158 5156 5154 5152 5149 5147 5145 5143 5141
5192 5191 5189 5188 5186 5184 5183 5184 5185 5186 5187 5188 5189 5189 5190 5190 5190 5190 5190 5190 5190 5190 5190 5190 5190 5190 5190 5189 5189 5189 5189 5189 5189 5189 5189 5190 5191 5192 5194 5195 5196 5196 5197 5198 5198 5198 5199 5199 5200 5200 5201 5201 5201 5201 5201 5200 5199 5197 5196 5194 5193 5191 5189 5187 5185 5183 5180 5178 5175 5172 5170 5167 5165 5163 5160 5158 5156 5154 5152 5150 5148 5146 5143 5141 5140
5191 5190 5189 5188 5187 5185 5184 5184 5185 5186 5187 5188 5189 5189 5190 5190 5190 5191 5191 5191 5191 5191 5191 5191 5191 5191 5191 5190 5190 5190 5189 5189 5189 5189 5190 5190 5191 5192 5193 5194 5194 5195 5196 5196 5197 5197 5197 5198 5199 5199 5200 5200 5200 5200 5199 5198 5197 5195 5194 5192 5191 5189 5187 5185 5183 5180 5178 5175 5173 5170 5168 5165 5163 5160 5158 5156 5154 5152 5150 5148 5146 5144 5142 5140 5138
5191 5190 5189 5188 5187 5186 5185 5184 5185 5186 5187 5188 5189 5189 5190 5190 5191 5191 5191 5191 5191 5191 5191 5191 5191 5191 5191 5190 5190 5190 5189 5189 5189 5189 5189 5190 5191 5191 5192 5193 5193 5194 5195 5195 5196 5196 5197 5198 5198 5199 5199 5199 5199 5198 5197 5196 5195 5193 5192 5190 5189 5187 5185 5183 5180 5178 5175 5173 5170 5168 5165 5163 5160 5158 5155 5153 5151 5149 5147 5146 5144 5142 5140 5138 5136
5190 5190 5190 5188 5187 5186 5186 5186 5186 5187 5188 5189 5189 5190 5190 5190 5191 5191 5192 5192 5192 5192 5192 5191 5191 5191 5191 5191 5190 5190 5189 5189 5188 5188 5188 5189 5190 5191 5191 5192 5192 5193 5194 5194 5195 5196 5197 5197 5198 5199 5199 5198 5197 5196 5195 5194 5193 5192 5190 5188 5187 5185 5183 5180 5178 5175 5173 5170 5168 5165 5163 5160 5158 5155 5153 5151 5149 5147 5145 5143 5141 5139 5138 5135 5133
5190 5190 5190 5189 5187 5187 5187 5187 5187 5188 5189 5189 5190 5190 5191 5191 5191 5192 5192 5192 5192 5192 5192 5192 5192 5191 5191 5190 5190 5189 5189 5188 5188 5187 5187 5188 5189 5190 5191 5191 5192 5192 5193 5194 5195 5196 5197 5197 5198 5198 5197 5197 5196 5195 5194 5193 5191 5190 5188 5186 5184 5182 5180 5178 5175 5173 5171 5168 5165 5163 5160 5158 5155 5153 5150 5148 5146 5144 5142 5140 5138 5136 5135 5133 5131
5189 5190 5190 5189 5188 5187 5187 5187 5188 5188 5189 5189 5190 5190 5191 5191 5191 5192 5192 5192 5192 5192 5192 5192 5192 5191 5191 5190 5190 5189 5188 5187 5187 5187 5187 5188 5188 5189 5190 5191 5192 5192 5193 5195 5195 5196 5197 5197 5197 5197 5196 5195 5194 5193 5192 5191 5190 5188 5186 5185 5182 5180 5178 5175 5173 5171 5168 5165 5163 5160 5158 5155 5152 5150 5148 5145 5143 5141 5139 5137 5135 5133 5131 5129 5127
5189 5189 5189 5189 5188 5187 5187 5187 5187 5188 5188 5189 5189 5190 5190 5190 5191 5191 5192 5192 5192 5193 5193 5193 5192 5192 5191 5190 5190 5188 5187 5187 5187 5187 5187 5188 5189 5189 5190 5191 5192 5193 5194 5195 5196 5196 5196 5196 5196 5195 5195 5194 5193 5192 5191 5189 5188 5186 5185 5183 5181 5178 5176 5173 5171 5168 5166 5163 5160 5157 5155 5152 5149 5147 5145 5142 5140 5137 5135 5133 5131 5129 5127 5125 5123
5189 5189 5189 5189 5188 5187 5187 5187 5187 5187 5187 5188 5188 5188 5189 5189 5190 5191 5191 5192 5192 5193 5193 5193 5193 5192 5191 5191 5190 5189 5188 5187 5188 5188 5188 5189 5190 5190 5191 5192 5193 5194 5195 5195 5195 5195 5195 5195 5195 5194 5193 5193 5192 5191 5189 5188 5187 5185 5183 5181 5179 5176 5174 5171 5169 5166 5163 5160 5158 5155 5152 5149 5146 5143 5141 5138 5136 5133 5131 5128 5126 5124 5122 5120 5119
5189 5189 5189 5189 5188 5187 5187 5187 5187 5186 5186 5187 5187 5187 5188 5188 5189 5190 5191 5192 5192 5193 5193 5194 5194 5193 5192 5191 5190 5190 5189 5189 5189 5189 5190 5190 5191 5192 5193 5193 5194 5194 5194 5195 5195 5195 5195 5194 5194 5193 5192 5192 5191 5190 5188 5187 5186 5184 5182 5179 5177 5174 5172 5169 5166 5164 5161 5158 5155 5151 5148 5145 5142 5140 5137 5134 5131 5128 5126 5123 5121 5119 5117 5115 5113
5188 5188 5188 5188 5188 5187 5187 5186 5186 5186 5186 5186 5186 5186 5186 5187 5188 5189 5190 5191 5192 5193 5194 5194 5194 5193 5193 5192 5192 5191 5191 5190 5191 5191 5192 5192 5192 5193 5193 5193 5194 5194 5194 5194 5194 5194 5194 5193 5193 5192 5192 5191 5190 5189 5188 5186 5184 5182 5180 5178 5175 5172 5170 5167 5164 5161 5158 5154 5151 5148 5145 5141 5138 5135 5132 5129 5126 5123 5121 5118 5115 5113 5111 5109 5107
5188 5188 5188 5188 5188 5187 5187 5186 5186 5186 5186 5186 5186 5185 5185 5186 5187 5188 5189 5191 5192 5193 5194 5195 5195 5194 5193 5193 5193 5193 5193 5193 5193 5193 5193 5193 5193 5193 5193 5193 5193 5194 5194 5194 5194 5193 5193 5193 5192 5192 5191 5190 5189 5188 5186 5185 5183 5180 5178 5176 5173 5170 5167 5164 5161 5158 5154 5151 5147 5144 5140 5137 5134 5130 5127 5124 5121 5117 5114 5112 5109 5106 5104 5102 5099